Find Starlink 3226

NORAD ID: 49740 Int'l Des: 2021-115 Owner: SPXS Country: US Constellation: starlink operational
LEOCIRCULAR

实时位置

正在加载3D地球...

关于 Starlink 3226

正在加载描述...

即将过境

Passes for default location (London). Set your location on the main map for personalized predictions.

高度历史

Loading altitude history...

两行轨道根数

1 49740U 21115S 26125.65357963 .00000997 00000-0 80696-4 0 9992
2 49740 53.2165 253.3701 0001239 85.3470 274.7664 15.08841912244130
Epoch: May 5, 2026 • Age: 32 hours

当前状态

高度 539.8 km
速度 7.60 km/s
星下点 18.39°N, 174.48°W
发射日期 Dec 2, 2021
运行时间 4.4 years
类型 internet

技术详情

分类 Payload
质量 290.00 kg
干质量 270.00 kg
总质量 290.00 kg
长度 0.20 m
直径 2.80 m
跨度 9.00 m
形状 Box + pan
制造商 SPXS
平台类型 Starlink
阶段状态 In Orbit
所有者/国家 SPXS/US

Most Searched